Location: Boca de Tacagua
(10.5333°N, 66.9833°W)
Time: 03:53:47
(UTC+00:00)

Ariane H10-3 - Pass Details

Date: 03 July 2022
Orbit: 476 x 36437 km, 5.2° (Epoch: 14 August)

Event Time Altitude Azimuth Distance (km) Brightness Sun altitude
Rises 00:52:36 0° 270° (W) 12,303 9.0 -26.7°
Reaches altitude 10° 01:00:10 10° 269° (W) 13,267 8.9 -28.3°
Maximum altitude 02:38:25 42° 263° (W) 27,998 9.8 -46.4°
Drops below altitude 10° 11:00:30 10° 136° (SE) 2,487 5.0 10.5°
Sets 11:02:14 0° 122° (ESE) 3,009 5.6 10.9°
